Regional Weather Roundup
Issued by NWS

Home | Current Version | Previous Version | Text Only | Print | Product List | Glossary On
Versions: 1 2 3 4 5 6 7 8 9 10 11 12 13 14 15 16 17 18 19 20 21 22 23 24 25 26 27 28 29 30 31 32 33 34 35 36 37 38 39 40 41 42 43 44 45 46 47 48 49 50
379
ASMX46 KSGX 280311
RWRMX
MEXICAN WEATHER ROUNDUP
NATIONAL WEATHER SERVICE SAN DIEGO CA
800 PM PDT THU APR 27 2017

BAJA CALIFORNIA

CITY           SKY/WX    TMP DP  RH WIND       PRES   REMARKS
ENSENADA NW      N/A     62  32  32 NW2       29.76S
LA PAZ         CLEAR     68  55  64 S9        29.84R
MEXICALI       PTCLDY    84  41  21 S3        29.56S
S.J. DEL CABO  CLEAR     77  57  50 NW12      29.78R
TIJUANA        MOCLDY    61  52  72 W5        29.79F

NORTHWESTERN MEXICO

CITY           SKY/WX    TMP DP  RH WIND       PRES   REMARKS
CHIHUAHUA      PTCLDY    82  32  16 W10       29.73R
CULIACAN       CLEAR     77  64  65 CALM      29.78R
GUAYMAS          N/A    N/A N/A N/A MISG        N/A
HERMOSILLO     PTCLDY    81  50  34 SW8       29.71S
JUAREZ         MOCLDY    82  45  26 W23G35    29.55S
LOS MOCHIS     CLEAR     75  64  69 SW12      29.76R

NORTHEASTERN MEXICO

CITY           SKY/WX    TMP DP  RH WIND       PRES   REMARKS
MONCLOVA         N/A    N/A N/A N/A MISG        N/A
MONTERREY      PTCLDY    82  64  54 E14       29.61R
REYNOSA        MOCLDY    79  68  69 SE15      29.63R
SALTILLO       PTCLDY    73  50  43 N7        29.84R
TORREON        PTCLDY    88  32  13 E5        29.68R
VICTORIA         N/A    N/A N/A N/A MISG        N/A

WESTERN MEXICO

CITY           SKY/WX    TMP DP  RH WIND       PRES   REMARKS
AGUASCALIENTES PTCLDY    66   0   7 S8        30.05R
COLIMA         PTCLDY    68  66  94 W9        29.95R
DURANGO        PTCLDY    70  37  30 SW20      29.94R
GUADALAJARA    CLEAR     73  14  10 S10       30.03R
MAZATLAN       CLEAR     73  68  83 CALM      29.82R
PTO. VALLARTA  CLEAR     77  70  78 SW6       29.84R
TEPIC            N/A    N/A N/A N/A MISG        N/A
URUAPAN          N/A    N/A N/A N/A MISG        N/A
ZACATECAS      CLEAR     61   9  12 S5        30.09R

CENTRAL MEXICO

CITY           SKY/WX    TMP DP  RH WIND       PRES   REMARKS
CUERNAVACA       N/A    N/A N/A N/A MISG        N/A
LEON           PTCLDY    73  19  13 SW6       30.09R
MEXICO CITY    CLEAR     72  30  21 SE9       30.16R
MORELIA        PTCLDY    72  41  33 S7        30.08R
POZA RICA        N/A    N/A N/A N/A MISG        N/A
QUERETARO      PTCLDY    70  30  23 SW5       30.11R
S. LUIS POTOSI PTCLDY    73  -9   3 CALM      30.00R
TAMPICO        MOCLDY    77  73  88 SE6       29.65R
TOLUCA         MOCLDY    57  37  47 N7        30.28R
VERACRUZ       MOCLDY    79  72  78 CALM      29.69R

SOUTHERN MEXICO

CITY           SKY/WX    TMP DP  RH WIND       PRES   REMARKS
ACAPULCO       PTCLDY    79  73  83 W6        29.80R
B. DE HUATULCO   N/A    N/A N/A N/A MISG        N/A
MINATITLAN       N/A    N/A N/A N/A MISG        N/A
PTO. ESCONDIDO   N/A    N/A N/A N/A MISG        N/A
TAPACHULA      PTCLDY    81  73  78 CALM      29.81R
TUX. GUTIERREZ CLEAR     82  61  47 CALM      29.81R
VILLAHERMOSA   PTCLDY    81  75  83 CALM      29.72R
ZIHUATANEJO      N/A    N/A N/A N/A MISG        N/A

YUCATAN PENINSULA

CITY           SKY/WX    TMP DP  RH WIND       PRES   REMARKS
CAMPECHE       MOCLDY    86  79  79 N12       29.68R HX  99
CANCUN         MOCLDY    81  81 100 SE16      29.85R
CHETUMAL       MOCLDY    82  79  89 SE12      29.76R
C. DEL CARMEN    N/A    N/A N/A N/A MISG        N/A
COZUMEL        PTCLDY    82  77  83 SE14      29.82R
MERIDA         MOCLDY    88  72  58 E23       29.74R

$$





USA.gov is the U.S. government's official web portal to all federal, state and local government web resources and services.